Location: Honolulu
(21.3069°N, 157.8583°W)
Time: 06:28:57
(UTC-10:00)

Tiros 1 despin weight - Pass Details

Date: 13 May 2026
Orbit: 554 x 591 km, 48.2° (Epoch: 10 June)

Event Time Altitude Azimuth Distance (km) Brightness Sun altitude
Exits shadow 03:31:25 18° 108° (ESE) 1,425 ? -30.0°
Drops below altitude 10° 03:33:24 10° 82° (E) 1,853 ? -29.6°
Sets 03:36:07 0° 64° (ENE) 2,744 ? -29.1°
